Home   Weather   Livingston   Past weeks
Flag for USA

Past Weather in Livingston, Texas, USA — Yesterday and Last 2 Weeks

Now
49 °F

Clear.


Feels Like: 49 °F
Forecast: 73 / 49 °F
Wind: No wind

Location: Angelina County Airport

Current Time: Apr 1, 2020 at 3:38:01 am

Latest Report: Apr 1, 2020 at 1:53 am


Visibility: 10 mi

Pressure: 30.02 "Hg

Humidity: 90%

Dew Point: 46 °F

Location of LivingstonLocation

Past Weather in Livingston — Graph

°F

Livingston Temperature Yesterday

Maximum temperature yesterday: 69 °F (at 1:53 am)
Minimum temperature yesterday: 50 °F (at 11:53 pm)
Average temperature yesterday: 62 °F

High & Low Weather Summary for the Past Weeks

 TemperatureHumidityPressure
High89 °F (Mar 27, 2:53 pm)97% (Mar 17, 6:06 am)30.38 "Hg (Mar 17, 6:06 am)
Low48 °F (Mar 21, 4:53 am)28% (Mar 29, 12:53 pm)29.72 "Hg (Mar 27, 4:53 pm)
Average68 °F82%30.01 "Hg
* Reported Mar 17 1:53 am — Apr 1 1:53 am, Livingston. Weather by CustomWeather, © 2020

Note: Actual official high and low records may vary slightly from our data, if they occured in-between our weather recording intervals... More about our weather records

Livingston Weather History for the Previous 24 Hours

Scroll right to see more
 ConditionsComfort  
Time TempWeatherWind HumidityBarometerVisibility
1:53 am
Wed, Apr 1
49 °FClear.No wind90%30.02 "Hg10 mi
12:53 am49 °FClear.No wind93%30.04 "Hg10 mi
11:53 pm
Tue, Mar 31
50 °FClear.No wind93%30.04 "Hg10 mi
10:53 pm51 °FClear.No wind92%30.05 "Hg10 mi
9:53 pm53 °FClear.No wind89%30.04 "Hg10 mi
8:53 pm55 °FClear.No wind87%30.02 "Hg10 mi
7:53 pm58 °FClear.No wind75%30.01 "Hg10 mi
6:53 pm64 °FPartly sunny.3 mph61%30.00 "Hg10 mi
5:53 pm65 °FOvercast.7 mph59%30.00 "Hg10 mi
4:53 pm65 °FOvercast.6 mph59%29.99 "Hg10 mi
3:53 pm65 °FMore clouds than sun.7 mph61%29.99 "Hg10 mi
2:53 pm64 °FMostly cloudy.7 mph58%30.00 "Hg10 mi
1:53 pm64 °FOvercast.8 mph61%30.02 "Hg10 mi
12:53 pm63 °FMore clouds than sun.12 mph63%30.02 "Hg10 mi
12:04 pm64 °FMore clouds than sun.12 mph61%30.04 "Hg10 mi
11:53 am63 °FMostly cloudy.14 mph63%30.03 "Hg10 mi
10:53 am61 °FPartly sunny.15 mph67%30.01 "Hg10 mi
9:53 am59 °FOvercast.8 mph78%30.00 "Hg10 mi
8:53 am58 °FOvercast.8 mph84%29.98 "Hg10 mi
8:03 am58 °FLow clouds.10 mph90%29.96 "Hg10 mi
7:38 am59 °FMostly cloudy.13 mph90%29.94 "Hg10 mi
6:53 am60 °FLow clouds.7 mph90%29.89 "Hg10 mi
6:18 am61 °FPassing clouds.7 mph90%29.89 "Hg10 mi
6:07 am61 °FPassing clouds.7 mph93%29.88 "Hg10 mi
4:53 am63 °FPassing clouds.5 mph93%29.85 "Hg10 mi
4:40 am64 °FMostly cloudy.3 mph94%29.85 "Hg10 mi
4:16 am64 °FMostly cloudy.6 mph94%29.86 "Hg10 mi
4:02 am64 °FMostly cloudy.7 mph94%29.86 "Hg10 mi
Weather by CustomWeather, © 2020

See weather overview

Advertising